{"data":{"norad_id":45794,"epoch":"2026-09-20T04:28:33.384864Z","epoch_age_seconds":97724,"freshness":"FRESH","line1":"1 45794U 20039A   26263.18649751  .00005696  00000+0  17610-3 0  9996","line2":"2 45794  97.5517  38.9860 0012456 102.8319 257.4316 15.33854278348314","mean_motion":15.33854278,"eccentricity":0.0012456,"inclination_deg":97.5517,"raan_deg":38.986,"arg_perigee_deg":102.8319,"mean_anomaly_deg":257.4316,"bstar":0.0001761,"rev_number":34831,"period_min":93.881147684878,"perigee_km":455.80275031408,"apogee_km":472.84869344682,"semimajor_km":6842.4627218804,"source":"CELESTRAK","updated_at":"2026-09-20T09:00:14.714208Z"}}